Regional Weather Roundup
Issued by NWS

Home | Current Version | Previous Version | Graphics & Text | Print | Product List | Glossary On
Versions: 1 2 3 4 5 6 7 8 9 10 11 12 13 14 15 16 17 18 19 20 21 22 23 24 25 26 27 28 29 30 31 32 33 34 35 36 37 38 39 40 41 42 43 44 45 46 47 48 49 50
000
ASUS43 KBIS 251110
RWRND

NORTH DAKOTA REGIONAL WEATHER ROUNDUP
NATIONAL WEATHER SERVICE BISMARCK ND
500 AM CST SUN JAN 25 2015

NOTE: "FAIR" INDICATES FEW OR NO CLOUDS BELOW 12,000 FEET WITH NO
SIGNIFICANT WEATHER AND/OR OBSTRUCTIONS TO VISIBILITY.


NDZ001>003-009>011-017-251200-
NORTHWEST NORTH DAKOTA

CITY           SKY/WX    TMP DP  RH WIND       PRES   REMARKS
WILLISTON      CLOUDY    35  30  82 N14G21    29.98F
MINOT          LGT SNOW  27  25  92 N7        29.93S FOG     WCI  19
MINOT AFB      FRZ RAIN  25  25 100 N10       29.94S FOG     WCI  15
$$

NDZ018>021-031>035-040>046-251200-
SOUTHWEST NORTH DAKOTA

CITY           SKY/WX    TMP DP  RH WIND       PRES   REMARKS
BISMARCK       CLOUDY    37  32  82 NW13      29.94R
DICKINSON      CLOUDY    33  29  85 W7        29.96R
GARRISON         N/A     35  33  92 NW15      29.92R
HETTINGER ARPT CLEAR     31  27  85 NW15      29.99R
$$

NDZ004>008-012>016-024-026-027-054-251200-
NORTHEAST NORTH DAKOTA

CITY           SKY/WX    TMP DP  RH WIND       PRES   REMARKS
GRAND FORKS    CLEAR     14   9  80 N8        29.99R WCI   3
GRND FRKS AFB  CLEAR     13   9  83 N7        30.00R WCI   3
DEVILS LAKE    CLOUDY    16  10  79 NE5       29.96R WCI   9
$$

NDZ022-023-025-028>030-036>039-047>053-251200-
SOUTHEAST NORTH DAKOTA

CITY           SKY/WX    TMP DP  RH WIND       PRES   REMARKS
FARGO          CLOUDY    22  16  78 N12       29.95R WCI  10
JAMESTOWN      CLOUDY    21  18  88 N9        29.95R WCI  11
$$



USA.gov is the U.S. government's official web portal to all federal, state and local government web resources and services.